Location: Oregon Star Party
(44.2935°N, 120.1332°W)
Time: 01:44:20
(UTC-07:00)

Amateur Radio Satellites - All Passes

Search period start: 25 October 2014 01:14
Search period end: 26 October 2014 01:14
Location: Oregon Star Party, 44.2935°N, 120.1332°W

Satellite Date Start Highest point End Downlink Frequencies (MHz)
Time Altitude Azimuth
Oscar 19 25 Oct 01:36:26 01:40:10 20° 92° (E) 01:43:54 437.125 CW, 437.150 USB
AO-27 25 Oct 01:55:55 01:58:07 13° 88° (E) 02:00:18 436.795 MHz FM
AO-Echo 25 Oct 02:15:11 02:19:37 26° 94° (E) 02:24:01 ?
Oscar 16 25 Oct 02:21:21 02:26:22 53° 100° (E) 02:31:22 437.025 USB, Beacon 2401.1428
JAS-1B 25 Oct 02:35:07 02:41:42 61° 102° (ESE) 02:49:32 435.800 - 435.900 CW/SSB
Uribyol 2 25 Oct 02:41:31 02:46:17 35° 97° (E) 02:51:00 436.500 FM
ITAMSAT 1 25 Oct 02:47:33 02:52:24 37° 97° (E) 02:57:13 435.822 SSB
PCSat 25 Oct 02:48:06 02:50:39 13° 103° (ESE) 02:53:11 145.825 MHz
Gurwin Techsat 1B 25 Oct 03:08:51 03:13:36 32° 96° (E) 03:18:19 435.225 FM
Oscar 19 25 Oct 03:14:51 03:19:50 53° 289° (WNW) 03:24:47 437.125 CW, 437.150 USB
TMSAT-1 25 Oct 03:19:59 03:24:38 30° 95° (E) 03:29:16 436.925 FM
RS-15 25 Oct 03:29:14 03:37:55 26° 3° (N) 03:46:46 29.354 - 29.394 USB, Beacon 29.352 USB
AO-27 25 Oct 03:33:02 03:38:18 85° 285° (WNW) 03:43:31 436.795 MHz FM
AO-Echo 25 Oct 03:53:30 03:58:32 44° 291° (WNW) 04:03:33 ?
Oscar 16 25 Oct 04:01:31 04:05:22 22° 298° (WNW) 04:09:12 437.025 USB, Beacon 2401.1428
Uosat F 25 Oct 04:03:49 04:04:02 10° 87° (E) 04:04:14 435.120 FM
Sapphire 25 Oct 04:05:29 04:10:46 57° 116° (ESE) 04:16:05 437.095 MHz 1200 baud AX-25 AFSK
AO-7 25 Oct 04:14:13 04:20:58 27° 93° (E) 04:27:40 29.400 - 29.500 MHz
Uribyol 2 25 Oct 04:21:05 04:25:41 32° 294° (WNW) 04:30:15 436.500 FM
JAS-1B 25 Oct 04:26:40 04:32:04 28° 297° (WNW) 04:38:12 435.800 - 435.900 CW/SSB
ITAMSAT 1 25 Oct 04:27:15 04:31:47 31° 295° (WNW) 04:36:17 435.822 SSB
PCSat 25 Oct 04:27:50 04:33:15 89° 301° (WNW) 04:38:43 145.825 MHz
Gurwin Techsat 1B 25 Oct 04:48:45 04:53:34 36° 293° (WNW) 04:58:22 435.225 FM
OPAL 25 Oct 04:49:39 04:54:40 55° 69° (ENE) 04:59:38 ?
TMSAT-1 25 Oct 04:59:44 05:04:36 38° 293° (WNW) 05:09:27 436.925 FM
AO-27 25 Oct 05:14:37 05:17:00 13° 304° (WNW) 05:19:24 436.795 MHz FM
Uosat F 25 Oct 05:38:29 05:43:34 84° 105° (ESE) 05:48:37 435.120 FM
JAS-2 25 Oct 05:41:49 05:48:51 36° 94° (E) 05:55:52 435.800 - 435.900 CW/SSB, 435.910 FM
RS-15 25 Oct 05:43:49 05:54:12 43° 36° (NE) 06:04:56 29.354 - 29.394 USB, Beacon 29.352 USB
Sapphire 25 Oct 05:50:00 05:54:32 27° 316° (NW) 05:59:07 437.095 MHz 1200 baud AX-25 AFSK
AO-7 25 Oct 06:06:08 06:14:26 73° 293° (WNW) 06:22:42 29.400 - 29.500 MHz
PCSat 25 Oct 06:13:39 06:17:27 19° 321° (NW) 06:21:16 145.825 MHz
OPAL 25 Oct 06:30:07 06:33:51 20° 265° (W) 06:37:34 ?
STRAND 1 25 Oct 06:34:41 06:39:41 56° 71° (ENE) 06:44:44 ?
Hamsat 25 Oct 06:34:59 06:39:04 49° 99° (E) 06:43:09 145.90 MHz
Uosat F 25 Oct 07:19:01 07:21:40 14° 302° (WNW) 07:24:18 435.120 FM
JAS-2 25 Oct 07:26:33 07:34:03 55° 292° (WNW) 07:41:37 435.800 - 435.900 CW/SSB, 435.910 FM
Saudisat 1A 25 Oct 07:27:37 07:31:39 37° 117° (ESE) 07:35:43 436.775 MHz
SO-67 25 Oct 07:31:43 07:34:38 25° 95° (E) 07:37:31 435.3500 MHz FM
RS-15 25 Oct 07:56:22 08:07:27 73° 241° (WSW) 08:19:01 29.354 - 29.394 USB, Beacon 29.352 USB
AO-7 25 Oct 08:00:30 08:05:51 19° 314° (NW) 08:11:13 29.400 - 29.500 MHz
Hamsat 25 Oct 08:11:59 08:14:39 17° 296° (WNW) 08:17:19 145.90 MHz
STRAND 1 25 Oct 08:15:35 08:19:14 19° 268° (W) 08:22:54 ?
HO-68 25 Oct 08:21:40 08:24:21 12° 85° (E) 08:27:02 435.675 MHz FM
SO-67 25 Oct 09:04:53 09:07:29 20° 292° (WNW) 09:10:04 435.3500 MHz FM
Saudisat 1A 25 Oct 09:07:24 09:11:17 30° 316° (NW) 09:15:11 436.775 MHz
MaSat-1 25 Oct 09:09:18 09:11:56 57° 61° (ENE) 09:14:20 437.345 MHz
JAS-2 25 Oct 09:14:06 09:17:30 14° 311° (NW) 09:20:56 435.800 - 435.900 CW/SSB, 435.910 FM
UKube-1 25 Oct 09:47:31 09:50:30 18° 93° (E) 09:53:28 145.840 MHz, 145.915 MHz
HO-68 25 Oct 10:06:05 10:13:18 71° 104° (ESE) 10:20:27 435.675 MHz FM
RS-15 25 Oct 10:11:22 10:17:49 17° 263° (W) 10:24:26 29.354 - 29.394 USB, Beacon 29.352 USB
Oscar 11 25 Oct 10:27:39 10:31:48 44° 99° (E) 10:35:55 145.825 FM, Beacon 2401.500 USB
FUNcube-1 25 Oct 10:27:50 10:30:53 19° 92° (E) 10:33:53 145.950 - 145.970 MHz USB
Sapphire 25 Oct 11:09:39 11:12:44 15° 34° (NE) 11:15:48 437.095 MHz 1200 baud AX-25 AFSK
ZACube-1 25 Oct 11:18:38 11:22:54 68° 101° (ESE) 11:27:03 437.345 MHz
UKube-1 25 Oct 11:22:44 11:26:55 46° 289° (WNW) 11:31:05 145.840 MHz, 145.915 MHz
PCSat 25 Oct 11:31:38 11:35:42 21° 40° (NE) 11:39:44 145.825 MHz
KITSAT 1 25 Oct 11:48:05 11:55:28 41° 110° (ESE) 12:02:51 435.175 FM
HO-68 25 Oct 11:54:41 12:00:23 26° 304° (WNW) 12:06:04 435.675 MHz FM
FUNcube-1 25 Oct 12:03:28 12:07:27 39° 290° (WNW) 12:11:21 145.950 - 145.970 MHz USB
Oscar 16 25 Oct 12:03:58 12:06:25 14° 57° (ENE) 12:08:51 437.025 USB, Beacon 2401.1428
Oscar 11 25 Oct 12:04:39 12:07:40 19° 296° (WNW) 12:10:40 145.825 FM, Beacon 2401.500 USB
ISS 25 Oct 12:28:57 12:31:49 27° 138° (SE) 12:34:41 145.800 FM
ITAMSAT 1 25 Oct 12:32:59 12:33:40 10° 54° (NE) 12:34:21 435.822 SSB
Sapphire 25 Oct 12:51:50 12:57:15 65° 56° (NE) 13:02:38 437.095 MHz 1200 baud AX-25 AFSK
Oscar 19 25 Oct 12:54:36 12:59:14 35° 67° (ENE) 13:03:52 437.125 CW, 437.150 USB
ZACube-1 25 Oct 12:56:50 12:58:43 13° 300° (WNW) 13:00:35 437.345 MHz
SO-50 25 Oct 13:11:10 13:15:37 68° 122° (ESE) 13:20:14 436.795 FM
PCSat 25 Oct 13:14:19 13:19:46 81° 241° (WSW) 13:25:11 145.825 MHz
AO-27 25 Oct 13:14:46 13:18:54 24° 63° (ENE) 13:23:03 436.795 MHz FM
JAS-1B 25 Oct 13:23:44 13:29:27 55° 70° (ENE) 13:34:59 435.800 - 435.900 CW/SSB
AO-7 25 Oct 13:29:36 13:31:48 11° 37° (NE) 13:34:01 29.400 - 29.500 MHz
AO-Echo 25 Oct 13:29:39 13:34:09 37° 68° (ENE) 13:38:49 ?
Oscar 16 25 Oct 13:39:50 13:45:01 89° 75° (ENE) 13:50:12 437.025 USB, Beacon 2401.1428
KITSAT 1 25 Oct 13:42:50 13:50:41 53° 311° (NW) 13:58:36 435.175 FM
Uribyol 2 25 Oct 14:00:47 14:05:56 62° 72° (ENE) 14:11:07 436.500 FM
ISS 25 Oct 14:05:07 14:08:22 49° 335° (NNW) 14:11:38 145.800 FM
ITAMSAT 1 25 Oct 14:07:00 14:12:10 66° 72° (ENE) 14:17:22 435.822 SSB
Saudisat 1A 25 Oct 14:14:48 14:16:10 11° 29° (NNE) 14:17:31 436.775 MHz
UOSAT-12 25 Oct 14:30:52 14:35:14 42° 118° (ESE) 14:39:41 437.025 FM, 437.400 FM
Gurwin Techsat 1B 25 Oct 14:31:23 14:36:35 59° 71° (ENE) 14:41:49 435.225 FM
Oscar 19 25 Oct 14:34:02 14:38:35 31° 264° (W) 14:43:08 437.125 CW, 437.150 USB
Sapphire 25 Oct 14:36:19 14:40:09 20° 254° (WSW) 14:43:58 437.095 MHz 1200 baud AX-25 AFSK
TMSAT-1 25 Oct 14:42:09 14:47:18 55° 71° (ENE) 14:52:29 436.925 FM
AO-27 25 Oct 14:53:05 14:58:07 48° 260° (W) 15:03:11 436.795 MHz FM
SO-50 25 Oct 14:53:11 14:56:39 21° 322° (NW) 15:00:13 436.795 FM
PCSat 25 Oct 15:00:39 15:02:16 11° 258° (WSW) 15:03:54 145.825 MHz
AO-Echo 25 Oct 15:08:49 15:13:00 28° 266° (W) 15:17:20 ?
AO-7 25 Oct 15:14:48 15:22:25 43° 60° (ENE) 15:30:04 29.400 - 29.500 MHz
JAS-1B 25 Oct 15:16:19 15:20:35 20° 268° (W) 15:24:44 435.800 - 435.900 CW/SSB
Uosat F 25 Oct 15:16:34 15:20:03 19° 61° (ENE) 15:23:33 435.120 FM
Oscar 16 25 Oct 15:23:19 15:25:03 12° 272° (W) 15:26:48 437.025 USB, Beacon 2401.1428
Uribyol 2 25 Oct 15:42:21 15:45:50 18° 269° (W) 15:49:20 436.500 FM
KITSAT 1 25 Oct 15:42:32 15:48:11 20° 337° (NNW) 15:53:50 435.175 FM
ISS 25 Oct 15:42:51 15:45:35 23° 355° (N) 15:48:20 145.800 FM
ITAMSAT 1 25 Oct 15:48:52 15:52:08 17° 270° (W) 15:55:25 435.822 SSB
Saudisat 1A 25 Oct 15:52:28 15:56:47 49° 50° (NE) 16:01:05 436.775 MHz
JAS-2 25 Oct 15:58:01 16:01:58 18° 52° (NE) 16:06:11 435.800 - 435.900 CW/SSB, 435.910 FM
UOSAT-12 25 Oct 16:11:23 16:15:30 30° 317° (NW) 16:19:41 437.025 FM, 437.400 FM
Gurwin Techsat 1B 25 Oct 16:13:12 16:16:56 19° 269° (W) 16:20:43 435.225 FM
TMSAT-1 25 Oct 16:23:39 16:27:34 21° 268° (W) 16:31:30 436.925 FM
Uosat F 25 Oct 16:53:25 16:58:22 60° 258° (WSW) 17:03:23 435.120 FM
OPAL 25 Oct 17:00:39 17:02:02 11° 90° (E) 17:03:24 ?
AO-7 25 Oct 17:07:13 17:15:07 48° 259° (W) 17:23:05 29.400 - 29.500 MHz
ISS 25 Oct 17:19:58 17:22:58 30° 15° (NNE) 17:25:58 145.800 FM
Hamsat 25 Oct 17:29:44 17:33:42 42° 72° (ENE) 17:37:39 145.90 MHz
Saudisat 1A 25 Oct 17:32:45 17:36:02 21° 248° (WSW) 17:39:18 436.775 MHz
JAS-2 25 Oct 17:39:51 17:45:51 86° 75° (ENE) 17:52:46 435.800 - 435.900 CW/SSB, 435.910 FM
KITSAT 1 25 Oct 17:42:49 17:47:21 16° 8° (N) 17:51:53 435.175 FM
SO-67 25 Oct 18:07:26 18:08:47 12° 64° (ENE) 18:10:08 435.3500 MHz FM
OPAL 25 Oct 18:36:36 18:41:36 88° 288° (WNW) 18:46:33 ?
STRAND 1 25 Oct 18:44:54 18:48:09 17° 90° (E) 18:51:22 ?
HO-68 25 Oct 18:53:10 18:56:35 14° 47° (NE) 19:00:00 435.675 MHz FM
ISS 25 Oct 18:56:33 18:59:53 69° 214° (SW) 19:03:12 145.800 FM
Hamsat 25 Oct 19:06:59 19:09:50 18° 268° (W) 19:12:42 145.90 MHz
JAS-2 25 Oct 19:28:26 19:32:02 16° 276° (W) 19:35:52 435.800 - 435.900 CW/SSB, 435.910 FM
SO-67 25 Oct 19:38:03 19:41:21 45° 261° (W) 19:44:42 435.3500 MHz FM
KITSAT 1 25 Oct 19:38:49 19:45:51 31° 37° (NE) 19:52:51 435.175 FM
SO-50 25 Oct 20:01:26 20:04:51 19° 36° (NE) 20:08:18 436.795 FM
RS-15 25 Oct 20:17:11 20:21:54 14° 95° (E) 20:26:34 29.354 - 29.394 USB, Beacon 29.352 USB
OPAL 25 Oct 20:17:28 20:19:44 13° 305° (NW) 20:22:00 ?
STRAND 1 25 Oct 20:22:40 20:27:48 65° 288° (WNW) 20:32:53 ?
HO-68 25 Oct 20:35:53 20:42:54 62° 68° (ENE) 20:49:59 435.675 MHz FM
UKube-1 25 Oct 20:44:37 20:47:48 20° 64° (ENE) 20:51:01 145.840 MHz, 145.915 MHz
UOSAT-12 25 Oct 21:19:58 21:22:20 14° 30° (NNE) 21:24:40 437.025 FM, 437.400 FM
Oscar 11 25 Oct 21:24:05 21:28:11 43° 71° (ENE) 21:32:17 145.825 FM, Beacon 2401.500 USB
FUNcube-1 25 Oct 21:25:36 21:29:03 22° 65° (ENE) 21:32:27 145.950 - 145.970 MHz USB
KITSAT 1 25 Oct 21:34:02 21:42:08 81° 240° (WSW) 21:50:11 435.175 FM
SO-50 25 Oct 21:41:11 21:46:03 87° 235° (SW) 21:50:57 436.795 FM
ZACube-1 25 Oct 22:16:03 22:20:36 68° 74° (ENE) 22:25:05 437.345 MHz
UKube-1 25 Oct 22:19:34 22:23:43 42° 261° (W) 22:27:53 145.840 MHz, 145.915 MHz
RS-15 25 Oct 22:21:05 22:31:53 66° 117° (ESE) 22:42:38 29.354 - 29.394 USB, Beacon 29.352 USB
HO-68 25 Oct 22:25:10 22:31:03 27° 267° (W) 22:37:00 435.675 MHz FM
MaSat-1 25 Oct 22:48:21 22:50:33 14° 106° (ESE) 22:52:38 437.345 MHz
UOSAT-12 25 Oct 22:58:49 23:03:30 58° 51° (NE) 23:08:05 437.025 FM, 437.400 FM
FUNcube-1 25 Oct 23:00:48 23:05:09 43° 262° (W) 23:09:28 145.950 - 145.970 MHz USB
Oscar 11 25 Oct 23:01:31 23:04:34 19° 268° (W) 23:07:37 145.825 FM, Beacon 2401.500 USB
SO-50 25 Oct 23:24:09 23:25:54 12° 253° (WSW) 23:27:38 436.795 FM
KITSAT 1 25 Oct 23:31:29 23:36:17 17° 260° (W) 23:41:04 435.175 FM
ZACube-1 25 Oct 23:55:16 23:57:25 13° 271° (W) 23:59:34 437.345 MHz
MaSat-1 26 Oct 00:21:54 00:25:51 51° 300° (WNW) 00:29:25 437.345 MHz
RS-15 26 Oct 00:34:30 00:44:50 45° 322° (NW) 00:55:16 29.354 - 29.394 USB, Beacon 29.352 USB
UOSAT-12 26 Oct 00:39:54 00:43:13 19° 249° (WSW) 00:46:29 437.025 FM, 437.400 FM
JAS-1B 26 Oct 01:05:51 01:09:30 14° 89° (E) 01:13:24 435.800 - 435.900 CW/SSB
